Regional Weather Roundup
Issued by NWS Spokane, WA

Home | Current Version | Previous Version | Text Only | Print | Product List | Glossary On
Versions: 1 2 3 4 5 6 7 8 9 10 11 12 13 14 15 16 17 18 19 20 21 22 23 24 25 26 27 28 29 30 31 32 33 34 35 36 37 38 39 40 41 42 43 44 45 46 47 48 49 50
000
NZUS01 KOTX 212325
RWROTX

Eastern Washington/Northern Idaho Roundup
National Weather Service, Spokane WA
400 PM PDT SAT APR 21 2018

Note: "fair" indicated few or no clouds below 12,000 feet with no
significant weather and/or obstructions to visibility.

...Northeast Washington and Northern Idaho Panhandle...

CITY           SKY/WX    TMP DP  RH WIND       PRES   REMARKS
Spokane Intl   MOSUNNY   57  16  20 W23G35    30.19F
Spokane Downto MOSUNNY   58  24  27 SW17G28   30.19S
Coeur d Alene  SUNNY     56  26  31 SW24G30   30.18S
Deer Park      SUNNY     57  22  25 SW21G28   30.17S
Bonners Ferry  FAIR      50  34  53 N14       30.11S

...Southeast Washington and southern Idaho Panhandle...

CITY           SKY/WX    TMP DP  RH WIND       PRES   REMARKS
Walla Walla    SUNNY     62  22  21 SW10      30.26F
Pullman/Moscow MOSUNNY   55  24  30 W16G25    30.26S
Lewiston       SUNNY     63  25  23 NW20G31   30.20F
Lowell           N/A     71  34  25 CALM      30.17F
Grangeville    FAIR      55  32  41 N18G24    30.20S

...Columbia Basin...

CITY           SKY/WX    TMP DP  RH WIND       PRES   REMARKS
Ephrata        PTSUNNY   60  19  20 W18       30.23F
Moses Lake     PTSUNNY   60  25  26 W16G23    30.23F
Pasco          SUNNY     67  21  17 W15G25    30.25F
Richland       CLEAR     69  27  20 NW12G17   30.25S
Hermiston      SUNNY     65  20  17 W12       30.26F
Pendleton      SUNNY     62  12  14 W13G29    30.26F

...East Slopes Cascades...

CITY           SKY/WX    TMP DP  RH WIND       PRES   REMARKS
The Dalles     MOSUNNY   63  28  26 NW23G29   30.31F
Yakima         PTSUNNY   62  27  26 NW14      30.28S
Ellensburg     MOSUNNY   53  28  38 NW22G29   30.31S
Wenatchee      PTSUNNY   56  22  26 NW20G26   30.27R
Winthrop       FAIR      54  21  27 N14G22    30.24R
Omak           PTSUNNY   59  19  21 W17G24    30.17R
Sunnyside      PTCLDY    60  24  25 W9G18     30.26S

...Southern British Columbia...

CITY           SKY/WX    TMP DP  RH WIND       PRES   REMARKS
Penticton      MOSUNNY   57  21  24 W9G21     30.18R
Castlegar      PTSUNNY   57  23  26 E3        30.10S
Cranbrook      MOSUNNY   52  23  32 NW12G25   30.05F
Osoyoos          N/A     63  18  17 NW9         N/A
Creston          N/A     52  36  54 E6          N/A

...Western Montana...

CITY           SKY/WX    TMP DP  RH WIND       PRES   REMARKS
Kalispell      CLOUDY    54  19  25 SW17G30   30.08R
Missoula       SUNNY     60  25  26 W20G30    30.13F

...Neighboring Cities...

CITY           SKY/WX    TMP DP  RH WIND       PRES   REMARKS
Seattle        CLOUDY    53  37  54 NE7       30.41S
Portland       MOSUNNY   62  33  33 NW10      30.38F
Boise          SUNNY     69  34  27 N13G20    30.12F
Great Falls    SUNNY     61  24  24 W28G47    29.97R
Calgary        MOSUNNY   50  30  46 NW9G18    29.81R



USA.gov is the U.S. government's official web portal to all federal, state and local government web resources and services.